This demonstration page uses our WeatherBlox Daily Observations layout. Learn more.

Left ArrowRight Arrow

44.8408, -93.29828

Hourly Observations for October 30, 2021

Temp ( °F °C ) Dew Point ( °F °C ) Humidity (%) Winds ( mph kmh ) Pressure ( in mb ) Visibility ( mi km ) Precip ( " mm )
12:53 am 00:53 Clear 40 4.4 38 3.3 93 93 Calm 29.91 1013 10 16 0.00 0.00
1:53 am 01:53 Clear 39 3.9 37 2.8 93 93 Calm 29.90 1013 8 13 0.00 0.00
2:53 am 02:53 Clear 38 3.3 36 2.2 93 93 Calm 29.89 1012 10 16 0.00 0.00
3:29 am 03:29 Clear with Mist and Fog 38 3.3 37 2.8 97 97 Calm 29.90 1013 2 2 0.00 0.00
3:37 am 03:37 Clear 38 3.3 37 2.8 97 97 Calm 29.90 1013 10 16 0.00 0.00
3:53 am 03:53 Clear 39 3.9 37 2.8 93 93 Calm 29.88 1012 10 16 0.00 0.00
4:53 am 04:53 Clear 37 2.8 35 1.7 93 93 Calm 29.87 1012 10 16 0.00 0.00
5:53 am 05:53 Clear with Patchy Fog 36 2.2 34 1.1 93 93 Calm 29.87 1012 10 16 0.00 0.00
6:53 am 06:53 Clear with Patchy Fog 36 2.2 34 1.1 93 93 Calm 29.86 1011 10 16 0.00 0.00
7:19 am 07:19 Partly Cloudy with Patchy Fog 36 2.2 34 1.1 93 93 Calm 29.88 1012 10 16 0.00 0.00
7:44 am 07:44 Partly Cloudy with Patchy Fog 36 2.2 35 1.7 97 97 Calm 29.88 1012 10 16 0.00 0.00
7:53 am 07:53 Partly Cloudy with Patchy Fog 37 2.8 35 1.7 93 93 Calm 29.86 1011 10 16 0.00 0.00
8:03 am 08:03 Partly Cloudy with Patchy Fog 38 3.3 36 2.2 93 93 Calm 29.87 1012 10 16 0.00 0.00
8:53 am 08:53 Partly Cloudy with Patchy Fog 39 3.9 38 3.3 96 96 Calm 29.87 1012 10 16 0.00 0.00
9:53 am 09:53 Partly Cloudy with Patchy Fog 42 5.6 39 3.9 89 89 ESE 3 6 29.86 1011 10 16 0.00 0.00
10:53 am 10:53 Mostly Sunny 46 7.8 41 5 83 83 SSE 7 11 29.83 1010 10 16 0.00 0.00
11:53 am 11:53 Mostly Sunny 49 9.4 41 5 74 74 SSE 6 9 29.82 1010 10 16 0.00 0.00
12:53 pm 12:53 Mostly Sunny 52 11.1 42 5.6 69 69 SW 3 6 29.82 1010 10 16 0.00 0.00
1:53 pm 13:53 Mostly Sunny 55 12.8 41 5 59 59 WNW 7 11 29.80 1009 10 16 0.00 0.00
2:53 pm 14:53 Mostly Sunny 56 13.3 39 3.9 53 53 WSW 5 7 29.78 1009 10 16 0.00 0.00
3:53 pm 15:53 Partly Cloudy 57 13.9 39 3.9 51 51 SW 5 7 29.78 1008 10 16 0.00 0.00
4:53 pm 16:53 Partly Cloudy 58 14.4 38 3.3 48 48 W 6 9 29.78 1008 10 16 0.00 0.00
5:53 pm 17:53 Partly Cloudy 56 13.3 39 3.9 53 53 W 5 7 29.79 1009 10 16 0.00 0.00
6:53 pm 18:53 Partly Cloudy 54 12.2 39 3.9 57 57 Calm 29.79 1009 10 16 0.00 0.00
7:53 pm 19:53 Mostly Cloudy 51 10.6 41 5 69 69 NW 10 17 29.81 1009 10 16 0.00 0.00
8:53 pm 20:53 Mostly Cloudy 51 10.6 40 4.4 66 66 NNW 16 26 29.83 1010 10 16 0.00 0.00
9:53 pm 21:53 Mostly Cloudy 50 10 40 4.4 68 68 NNW 16 26 29.86 1011 10 16 0.00 0.00
10:26 pm 22:26 Cloudy 50 10 40 4.4 68 68 N 20 31 29.88 1012 10 16 0.00 0.00
10:53 pm 22:53 Cloudy 49 9.4 40 4.4 71 71 N 16 26 29.89 1012 10 16 0.00 0.00
11:53 pm 23:53 Cloudy 48 8.9 36 2.2 63 63 N 23 37 29.91 1013 10 16 0.00 0.00

Powered by AerisWeather